Location: Unspecified
(46.6408°N, 0.0000°E)
Time: 16:58:13
(UTC+00:00)

Meteor 1-19 Rocket - Visible Passes

Search period start: 04 April 2026 00:00
Search period end: 14 April 2026 00:00
Orbit: 805 x 927 km, 81.2° (Epoch: 29 March)

Date Brightness Start Highest point End Pass type
(mag) Time Alt. Az. Time Alt. Az. Time Alt. Az.
4 Apr 6.6 03:33:35 10° SE 03:37:32 21° E 03:41:30 10° NE visible
5 Apr 6.5 03:26:08 10° SE 03:30:06 21° E 03:34:05 10° NE visible
6 Apr 6.5 03:18:41 10° SE 03:22:40 22° E 03:26:41 10° NE visible
7 Apr 6.4 03:11:14 10° SE 03:15:14 22° E 03:19:16 10° NE visible
7 Apr 4.3 04:52:49 10° SSW 04:58:04 53° WNW 05:03:23 10° N visible
8 Apr 6.4 03:03:47 10° SE 03:07:48 22° E 03:11:51 10° NE visible
8 Apr 4.3 04:45:24 10° SSW 04:50:38 53° WNW 04:55:57 10° N visible
9 Apr 6.3 02:56:20 10° SE 03:00:22 22° E 03:04:26 10° NE visible
9 Apr 4.3 04:37:58 10° SSW 04:43:12 52° WNW 04:48:32 10° N visible
10 Apr 6.3 02:48:53 10° SE 02:52:56 22° E 02:57:02 10° NE visible
10 Apr 4.3 04:30:33 10° SSW 04:35:47 52° WNW 04:41:07 10° N visible
11 Apr 6.3 02:41:26 10° SE 02:45:31 22° E 02:49:37 10° NE visible
11 Apr 4.3 04:23:07 10° SSW 04:28:20 52° WNW 04:33:41 10° N visible
12 Apr 6.2 02:33:58 10° SE 02:38:04 23° E 02:42:13 10° NE visible
12 Apr 4.3 04:15:42 10° SSW 04:20:55 51° WNW 04:26:16 10° N visible
13 Apr 6.2 02:26:31 10° SE 02:30:38 23° E 02:34:49 10° NE visible
13 Apr 4.4 04:08:22 11° SSW 04:13:30 51° WNW 04:18:50 10° N visible
